This is the latest recevied weather packets stored in our database for station/object WP3OF-2. If no packets are shown the sender has not sent any weather packets the latest 10 day(s).
| Time | Temp. | Humidity | Pressure | Rain* | Wind** | Luminosity | Snow |
|---|---|---|---|---|---|---|---|
| 1778069445 | 20.56° C | 91% | 1027.9 hPa | 0 mm | - | 324 W/m² | - |
| 1778069144 | 20.56° C | 91% | 1027.9 hPa | 0 mm | - | 307 W/m² | - |
| 1778068840 | 20.56° C | 91% | 1027.9 hPa | 0 mm | - | 282 W/m² | - |
| 1778068538 | 20° C | 92% | 1027.4 hPa | 0 mm | - | 265 W/m² | - |
| 1778068237 | 20° C | 92% | 1027.9 hPa | 0 mm | - | 232 W/m² | - |
| 1778067933 | 20° C | 92% | 1027.4 hPa | 0 mm | - | 227 W/m² | - |
| 1778067632 | 20° C | 93% | 1027.4 hPa | 0 mm | - | 205 W/m² | - |
| 1778067329 | 20° C | 91% | 1027.4 hPa | 0 mm | - | 186 W/m² | - |
| 1778067027 | 20° C | 92% | 1027.4 hPa | 0 mm | - | 173 W/m² | - |
| 1778066723 | 19.44° C | 92% | 1027.4 hPa | 0 mm | - | 154 W/m² | - |
| 1778066420 | 19.44° C | 92% | 1027.1 hPa | 0 mm | - | 136 W/m² | - |
| 1778066119 | 19.44° C | 92% | 1027.4 hPa | 0 mm | - | 60 W/m² | - |
| 1778065815 | 19.44° C | 92% | 1027.4 hPa | 0 mm | - | 49 W/m² | - |
| 1778065513 | 19.44° C | 92% | 1027.4 hPa | 0 mm | - | 46 W/m² | - |
| 1778065210 | 19.44° C | 92% | 1027.4 hPa | 0 mm | - | 43 W/m² | - |
| 1778064906 | 18.89° C | 93% | 1027.1 hPa | 0 mm | - | 40 W/m² | - |
| 1778064603 | 18.89° C | 92% | 1027.1 hPa | 0 mm | - | 37 W/m² | - |
| 1778064301 | 18.89° C | 92% | 1027.1 hPa | 0 mm | - | 34 W/m² | - |
| 1778063999 | 18.89° C | 93% | 1027.1 hPa | 0 mm | - | 31 W/m² | - |
| 1778063696 | 18.89° C | 93% | 1027.1 hPa | 0 mm | - | 28 W/m² | - |
| 1778063392 | 18.89° C | 93% | 1027.1 hPa | 0 mm | - | 24 W/m² | - |
| 1778063091 | 18.89° C | 93% | 1026.7 hPa | 0 mm | - | 21 W/m² | - |
| 1778062788 | 18.89° C | 93% | 1026.7 hPa | 0 mm | - | 17 W/m² | - |
| 1778062484 | 18.33° C | 94% | 1026.7 hPa | 0 mm | - | 14 W/m² | - |
| 1778062182 | 18.33° C | 94% | 1026.7 hPa | 0 mm | - | 10 W/m² | - |
* Rain latest hour (hover to see other rain measurements)
** Current wind speed in m/s (hover to see current wind gust speed)